EXPRESS 3A

导读

EXPRESS 3A是独立国家联合体(CIS)于2000年6月24日08:00发射的通信卫星,隶属于俄罗斯“快车”(EXPRESS)系列通信卫星组网计划,主要为覆盖区域提供固定通信、广播传输等空间通信服务,是独联体时期推进自主卫星通信基础设施建设的重要任务,后续该卫星承担了欧亚区域通信覆盖服务,延续了俄罗斯系列通信卫星的服务拓展。

Basic Information
目录编号:
26378
目录名称:
EXPRESS 3A
国际标识:
2000-031A
轨道中心:
EARTH
卫星名称:
EXPRESS 3A
卫星全名:
--
卫星状态:
在轨 (已飞行9516 天)
发射日期:
2000-06-24 UTC
国别 :
俄罗斯(独联体) (CIS)
星等 :
--
Orbit Information
数据来源 国际轨道数据 AOE轨道数据
星历时间 2026-07-14T05:30:03+0800
9小时前
查看轨道信息
2026-07-11T21:00:00+0800
2天前
查看轨道信息
半长轴 42592.011km 42591.293km
偏心率 0.0008694 0.000841
轨道倾角 12.343° 12.340°
近地点辐角 199.584° 201.359°
升交点赤经 32.026° 32.047°
平近点角 123.838° 4.971°
近地点 36176.844km 36177.336km
远地点 36250.904km 36248.976km
周期 1457.981分钟 1457.944分钟
每日圈数 0.987667 0.987692
Detailed Information
使用方式:
暂无
2D Orbit Map
3D Orbit Map
Orbit Altitude Analysis Chart
Orbit Inclination Analysis Chart
Orbit Comprehensive Analysis Chart
View Comprehensive Chart